Time,TemperatureF,DewpointF,PressureIn,WindDirection,WindDirectionDegrees,WindSpeedMPH,WindSpeedGustMPH,Humidity,HourlyPrecipIn,Conditions,Clouds,dailyrainin,SolarRadiationWatts/m^2,SoftwareType,DateUTC
2013-07-04 00:01:00,54.0,53.0,-100.00,NE,45,0.0,1.0,98,0.00,,,0.00,0.000000,,2013-07-04 05:01:00,
2013-07-04 00:22:00,60.0,54.0,-100.00,SSE,159,3.0,7.0,80,0.00,,,0.00,0.000000,,2013-07-04 05:22:00,
2013-07-04 00:33:00,60.0,54.0,-100.00,SSE,159,3.0,7.0,80,0.00,,,0.00,0.000000,,2013-07-04 05:33:00,
2013-07-04 00:43:00,60.0,54.0,-100.00,SSE,159,3.0,7.0,80,0.00,,,0.00,0.000000,,2013-07-04 05:43:00,
2013-07-04 00:52:00,60.0,54.0,-100.00,SSE,159,3.0,7.0,80,0.00,,,0.00,0.000000,,2013-07-04 05:52:00,
2013-07-04 01:01:00,60.0,54.0,-100.00,SSE,159,3.0,7.0,80,0.00,,,0.00,0.000000,,2013-07-04 06:01:00,
2013-07-04 01:02:00,57.0,53.0,-100.00,SSE,148,2.0,5.0,86,0.00,,,0.00,0.000000,,2013-07-04 06:02:00,
2013-07-04 01:22:00,57.0,53.0,-100.00,SSE,148,2.0,5.0,86,0.00,,,0.00,0.000000,,2013-07-04 06:22:00,
2013-07-04 01:34:00,57.0,53.0,-100.00,SSE,148,2.0,5.0,86,0.00,,,0.00,0.000000,,2013-07-04 06:34:00,
2013-07-04 01:43:00,57.0,53.0,-100.00,SSE,148,2.0,5.0,86,0.00,,,0.00,0.000000,,2013-07-04 06:43:00,
2013-07-04 01:53:00,57.0,53.0,-100.00,SSE,148,2.0,5.0,86,0.00,,,0.00,0.000000,,2013-07-04 06:53:00,
2013-07-04 02:02:00,57.0,53.0,-100.00,SE,141,3.0,5.0,88,0.00,,,0.00,0.000000,,2013-07-04 07:02:00,
2013-07-04 02:22:00,57.0,53.0,-100.00,SE,141,3.0,5.0,88,0.00,,,0.00,0.000000,,2013-07-04 07:22:00,
2013-07-04 02:34:00,57.0,53.0,-100.00,SE,141,3.0,5.0,88,0.00,,,0.00,0.000000,,2013-07-04 07:34:00,
2013-07-04 02:43:00,57.0,53.0,-100.00,SE,141,3.0,5.0,88,0.00,,,0.00,0.000000,,2013-07-04 07:43:00,
2013-07-04 02:52:00,57.0,53.0,-100.00,SE,141,3.0,5.0,88,0.00,,,0.00,0.000000,,2013-07-04 07:52:00,
2013-07-04 03:02:00,57.0,55.0,-100.00,SE,136,3.0,5.0,93,0.00,,,0.00,0.000000,,2013-07-04 08:02:00,
2013-07-04 03:22:00,57.0,55.0,-100.00,SE,136,3.0,5.0,93,0.00,,,0.00,0.000000,,2013-07-04 08:22:00,
2013-07-04 03:33:00,57.0,55.0,-100.00,SE,136,3.0,5.0,93,0.00,,,0.00,0.000000,,2013-07-04 08:33:00,
2013-07-04 03:43:00,57.0,55.0,-100.00,SE,136,3.0,5.0,93,0.00,,,0.00,0.000000,,2013-07-04 08:43:00,
2013-07-04 03:53:00,57.0,55.0,-100.00,SE,136,3.0,5.0,93,0.00,,,0.00,0.000000,,2013-07-04 08:53:00,
2013-07-04 04:22:00,55.0,54.0,-100.00,SE,139,1.0,4.0,98,0.00,,,0.00,0.000000,,2013-07-04 09:22:00,
2013-07-04 04:33:00,55.0,54.0,-100.00,SE,139,1.0,4.0,98,0.00,,,0.00,0.000000,,2013-07-04 09:33:00,
2013-07-04 04:42:00,55.0,54.0,-100.00,SE,139,1.0,4.0,98,0.00,,,0.00,0.000000,,2013-07-04 09:42:00,
2013-07-04 04:52:00,55.0,54.0,-100.00,SE,139,1.0,4.0,98,0.00,,,0.00,0.000000,,2013-07-04 09:52:00,
2013-07-04 05:01:00,55.0,54.0,-100.00,SE,139,1.0,4.0,98,0.00,,,0.00,0.000000,,2013-07-04 10:01:00,
2013-07-04 05:02:00,53.0,53.0,-100.00,ESE,119,1.0,4.0,99,0.00,,,0.00,0.000000,,2013-07-04 10:02:00,
2013-07-04 05:22:00,53.0,53.0,-100.00,ESE,119,1.0,4.0,99,0.00,,,0.00,0.000000,,2013-07-04 10:22:00,
2013-07-04 05:34:00,53.0,53.0,-100.00,ESE,119,1.0,4.0,99,0.00,,,0.00,0.000000,,2013-07-04 10:34:00,
2013-07-04 05:43:00,53.0,53.0,-100.00,ESE,119,1.0,4.0,99,0.00,,,0.00,0.000000,,2013-07-04 10:43:00,
2013-07-04 05:53:00,53.0,53.0,-100.00,ESE,119,1.0,4.0,99,0.00,,,0.00,0.000000,,2013-07-04 10:53:00,
2013-07-04 06:02:00,52.0,52.0,-100.00,ENE,77,0.0,2.0,99,0.00,,,0.00,13.000000,,2013-07-04 11:02:00,
2013-07-04 06:22:00,52.0,52.0,-100.00,ENE,77,0.0,2.0,99,0.00,,,0.00,13.000000,,2013-07-04 11:22:00,
2013-07-04 06:34:00,52.0,52.0,-100.00,ENE,77,0.0,2.0,99,0.00,,,0.00,13.000000,,2013-07-04 11:34:00,
2013-07-04 06:43:00,52.0,52.0,-100.00,ENE,77,0.0,2.0,99,0.00,,,0.00,13.000000,,2013-07-04 11:43:00,
2013-07-04 06:53:00,52.0,52.0,-100.00,ENE,77,0.0,2.0,99,0.00,,,0.00,13.000000,,2013-07-04 11:53:00,
2013-07-04 07:02:00,57.0,57.0,-100.00,SE,129,2.0,5.0,99,0.00,,,0.00,55.000000,,2013-07-04 12:02:00,
2013-07-04 07:22:00,57.0,57.0,-100.00,SE,129,2.0,5.0,99,0.00,,,0.00,55.000000,,2013-07-04 12:22:00,
2013-07-04 07:33:00,57.0,57.0,-100.00,SE,129,2.0,5.0,99,0.00,,,0.00,55.000000,,2013-07-04 12:33:00,
2013-07-04 07:43:00,57.0,57.0,-100.00,SE,129,2.0,5.0,99,0.00,,,0.00,55.000000,,2013-07-04 12:43:00,
2013-07-04 07:52:00,57.0,57.0,-100.00,SE,129,2.0,5.0,99,0.00,,,0.00,55.000000,,2013-07-04 12:52:00,
2013-07-04 08:02:00,66.0,59.0,-100.00,SSE,168,4.0,8.0,79,0.00,,,0.00,296.000000,,2013-07-04 13:02:00,
2013-07-04 08:23:00,66.0,59.0,-100.00,SSE,168,4.0,8.0,79,0.00,,,0.00,296.000000,,2013-07-04 13:23:00,
2013-07-04 08:33:00,66.0,59.0,-100.00,SSE,168,4.0,8.0,79,0.00,,,0.00,296.000000,,2013-07-04 13:33:00,
2013-07-04 08:43:00,66.0,59.0,-100.00,SSE,168,4.0,8.0,79,0.00,,,0.00,296.000000,,2013-07-04 13:43:00,
2013-07-04 08:53:00,66.0,59.0,-100.00,SSE,168,4.0,8.0,79,0.00,,,0.00,296.000000,,2013-07-04 13:53:00,
2013-07-04 09:02:00,71.0,59.0,-100.00,SW,214,5.0,8.0,66,0.00,,,0.00,486.000000,,2013-07-04 14:02:00,
2013-07-04 09:22:00,71.0,59.0,-100.00,SW,214,5.0,8.0,66,0.00,,,0.00,486.000000,,2013-07-04 14:22:00,
2013-07-04 09:33:00,71.0,59.0,-100.00,SW,214,5.0,8.0,66,0.00,,,0.00,486.000000,,2013-07-04 14:33:00,
2013-07-04 09:43:00,71.0,59.0,-100.00,SW,214,5.0,8.0,66,0.00,,,0.00,486.000000,,2013-07-04 14:43:00,
2013-07-04 09:53:00,71.0,59.0,-100.00,SW,214,5.0,8.0,66,0.00,,,0.00,486.000000,,2013-07-04 14:53:00,
2013-07-04 10:02:00,75.0,61.0,-100.00,South,177,4.0,9.0,61,0.00,,,0.00,665.000000,,2013-07-04 15:02:00,
2013-07-04 10:23:00,75.0,61.0,-100.00,South,177,4.0,9.0,61,0.00,,,0.00,665.000000,,2013-07-04 15:23:00,
2013-07-04 10:33:00,75.0,61.0,-100.00,South,177,4.0,9.0,61,0.00,,,0.00,665.000000,,2013-07-04 15:33:00,
2013-07-04 10:43:00,75.0,61.0,-100.00,South,177,4.0,9.0,61,0.00,,,0.00,665.000000,,2013-07-04 15:43:00,
2013-07-04 10:53:00,75.0,61.0,-100.00,South,177,4.0,9.0,61,0.00,,,0.00,665.000000,,2013-07-04 15:53:00,
2013-07-04 11:22:00,77.0,61.0,-100.00,South,169,6.0,11.0,57,0.00,,,0.00,824.000000,,2013-07-04 16:22:00,
2013-07-04 11:33:00,77.0,61.0,-100.00,South,169,6.0,11.0,57,0.00,,,0.00,824.000000,,2013-07-04 16:33:00,
2013-07-04 11:43:00,77.0,61.0,-100.00,South,169,6.0,11.0,57,0.00,,,0.00,824.000000,,2013-07-04 16:43:00,
2013-07-04 11:52:00,77.0,61.0,-100.00,South,169,6.0,11.0,57,0.00,,,0.00,824.000000,,2013-07-04 16:52:00,
2013-07-04 12:01:00,77.0,61.0,-100.00,South,169,6.0,11.0,57,0.00,,,0.00,824.000000,,2013-07-04 17:01:00,
2013-07-04 12:22:00,80.0,57.0,-100.00,SSW,203,6.0,15.0,45,0.00,,,0.00,924.000000,,2013-07-04 17:22:00,
2013-07-04 12:34:00,80.0,57.0,-100.00,SSW,203,6.0,15.0,45,0.00,,,0.00,924.000000,,2013-07-04 17:34:00,
2013-07-04 12:43:00,80.0,57.0,-100.00,SSW,203,6.0,15.0,45,0.00,,,0.00,924.000000,,2013-07-04 17:43:00,
2013-07-04 12:53:00,80.0,57.0,-100.00,SSW,203,6.0,15.0,45,0.00,,,0.00,924.000000,,2013-07-04 17:53:00,
2013-07-04 13:01:00,80.0,57.0,-100.00,SSW,203,6.0,15.0,45,0.00,,,0.00,924.000000,,2013-07-04 18:01:00,
2013-07-04 13:22:00,80.0,57.0,-100.00,South,191,8.0,17.0,46,0.00,,,0.00,1015.000000,,2013-07-04 18:22:00,
2013-07-04 13:33:00,80.0,57.0,-100.00,South,191,8.0,17.0,46,0.00,,,0.00,1015.000000,,2013-07-04 18:33:00,
2013-07-04 13:43:00,80.0,57.0,-100.00,South,191,8.0,17.0,46,0.00,,,0.00,1015.000000,,2013-07-04 18:43:00,
2013-07-04 13:52:00,80.0,57.0,-100.00,South,191,8.0,17.0,46,0.00,,,0.00,1015.000000,,2013-07-04 18:52:00,
2013-07-04 14:01:00,80.0,57.0,-100.00,South,191,8.0,17.0,46,0.00,,,0.00,1015.000000,,2013-07-04 19:01:00,
2013-07-04 14:22:00,81.0,59.0,-100.00,SW,216,7.0,14.0,47,0.00,,,0.00,961.000000,,2013-07-04 19:22:00,
2013-07-04 14:34:00,81.0,59.0,-100.00,SW,216,7.0,14.0,47,0.00,,,0.00,961.000000,,2013-07-04 19:34:00,
2013-07-04 14:43:00,81.0,59.0,-100.00,SW,216,7.0,14.0,47,0.00,,,0.00,961.000000,,2013-07-04 19:43:00,
2013-07-04 14:53:00,81.0,59.0,-100.00,SW,216,7.0,14.0,47,0.00,,,0.00,961.000000,,2013-07-04 19:53:00,
2013-07-04 15:01:00,81.0,59.0,-100.00,SW,216,7.0,14.0,47,0.00,,,0.00,961.000000,,2013-07-04 20:01:00,
2013-07-04 15:22:00,83.0,61.0,-100.00,SSW,206,6.0,17.0,47,0.00,,,0.00,657.000000,,2013-07-04 20:22:00,
2013-07-04 15:34:00,83.0,61.0,-100.00,SSW,206,6.0,17.0,47,0.00,,,0.00,657.000000,,2013-07-04 20:34:00,
2013-07-04 15:42:00,83.0,61.0,-100.00,SSW,206,6.0,17.0,47,0.00,,,0.00,657.000000,,2013-07-04 20:42:00,
2013-07-04 15:53:00,83.0,61.0,-100.00,SSW,206,6.0,17.0,47,0.00,,,0.00,657.000000,,2013-07-04 20:53:00,
2013-07-04 16:01:00,83.0,61.0,-100.00,SSW,206,6.0,17.0,47,0.00,,,0.00,657.000000,,2013-07-04 21:01:00,
2013-07-04 16:02:00,81.0,60.0,-100.00,SSW,196,6.0,17.0,49,0.00,,,0.00,676.000000,,2013-07-04 21:02:00,
2013-07-04 16:22:00,81.0,60.0,-100.00,SSW,196,6.0,17.0,49,0.00,,,0.00,676.000000,,2013-07-04 21:22:00,
2013-07-04 16:32:00,81.0,60.0,-100.00,SSW,196,6.0,17.0,49,0.00,,,0.00,676.000000,,2013-07-04 21:32:00,
2013-07-04 16:43:00,81.0,60.0,-100.00,SSW,196,6.0,17.0,49,0.00,,,0.00,676.000000,,2013-07-04 21:43:00,
2013-07-04 16:53:00,81.0,60.0,-100.00,SSW,196,6.0,17.0,49,0.00,,,0.00,676.000000,,2013-07-04 21:53:00,
2013-07-04 17:22:00,83.0,58.0,-100.00,SSW,201,6.0,14.0,43,0.00,,,0.00,658.000000,,2013-07-04 22:22:00,
2013-07-04 17:33:00,83.0,58.0,-100.00,SSW,201,6.0,14.0,43,0.00,,,0.00,658.000000,,2013-07-04 22:33:00,
2013-07-04 17:43:00,83.0,58.0,-100.00,SSW,201,6.0,14.0,43,0.00,,,0.00,658.000000,,2013-07-04 22:43:00,
2013-07-04 17:52:00,83.0,58.0,-100.00,SSW,201,6.0,14.0,43,0.00,,,0.00,658.000000,,2013-07-04 22:52:00,
2013-07-04 18:01:00,83.0,58.0,-100.00,SSW,201,6.0,14.0,43,0.00,,,0.00,658.000000,,2013-07-04 23:01:00,
2013-07-04 18:23:00,81.0,58.0,-100.00,SSW,211,5.0,17.0,46,0.00,,,0.00,481.000000,,2013-07-04 23:23:00,
2013-07-04 18:33:00,81.0,58.0,-100.00,SSW,211,5.0,17.0,46,0.00,,,0.00,481.000000,,2013-07-04 23:33:00,
2013-07-04 18:43:00,81.0,58.0,-100.00,SSW,211,5.0,17.0,46,0.00,,,0.00,481.000000,,2013-07-04 23:43:00,
2013-07-04 18:52:00,81.0,58.0,-100.00,SSW,211,5.0,17.0,46,0.00,,,0.00,481.000000,,2013-07-04 23:52:00,
2013-07-04 19:01:00,81.0,58.0,-100.00,SSW,211,5.0,17.0,46,0.00,,,0.00,481.000000,,2013-07-05 00:01:00,
2013-07-04 19:22:00,80.0,59.0,-100.00,South,178,5.0,14.0,49,0.00,,,0.00,322.000000,,2013-07-05 00:22:00,
2013-07-04 19:32:00,80.0,59.0,-100.00,South,178,5.0,14.0,49,0.00,,,0.00,322.000000,,2013-07-05 00:32:00,
2013-07-04 19:43:00,80.0,59.0,-100.00,South,178,5.0,14.0,49,0.00,,,0.00,322.000000,,2013-07-05 00:43:00,
2013-07-04 19:52:00,80.0,59.0,-100.00,South,178,5.0,14.0,49,0.00,,,0.00,322.000000,,2013-07-05 00:52:00,
2013-07-04 20:01:00,80.0,59.0,-100.00,South,178,5.0,14.0,49,0.00,,,0.00,322.000000,,2013-07-05 01:01:00,
2013-07-04 20:02:00,77.0,60.0,-100.00,South,171,3.0,13.0,55,0.00,,,0.00,155.000000,,2013-07-05 01:02:00,
2013-07-04 20:22:00,77.0,60.0,-100.00,South,171,3.0,13.0,55,0.00,,,0.00,155.000000,,2013-07-05 01:22:00,
2013-07-04 20:32:00,77.0,60.0,-100.00,South,171,3.0,13.0,55,0.00,,,0.00,155.000000,,2013-07-05 01:32:00,
2013-07-04 20:42:00,77.0,60.0,-100.00,South,171,3.0,13.0,55,0.00,,,0.00,155.000000,,2013-07-05 01:42:00,
2013-07-04 20:52:00,77.0,60.0,-100.00,South,171,3.0,13.0,55,0.00,,,0.00,155.000000,,2013-07-05 01:52:00,
2013-07-04 21:02:00,71.0,59.0,-100.00,SE,144,1.0,7.0,67,0.00,,,0.00,22.000000,,2013-07-05 02:02:00,
2013-07-04 21:22:00,71.0,59.0,-100.00,SE,144,1.0,7.0,67,0.00,,,0.00,22.000000,,2013-07-05 02:22:00,
2013-07-04 21:32:00,71.0,59.0,-100.00,SE,144,1.0,7.0,67,0.00,,,0.00,22.000000,,2013-07-05 02:32:00,
2013-07-04 21:43:00,71.0,59.0,-100.00,SE,144,1.0,7.0,67,0.00,,,0.00,22.000000,,2013-07-05 02:43:00,
2013-07-04 21:52:00,71.0,59.0,-100.00,SE,144,1.0,7.0,67,0.00,,,0.00,22.000000,,2013-07-05 02:52:00,
2013-07-04 22:22:00,66.0,60.0,-100.00,SSE,147,0.0,4.0,80,0.00,,,0.00,1.000000,,2013-07-05 03:22:00,
2013-07-04 22:33:00,66.0,60.0,-100.00,SSE,147,0.0,4.0,80,0.00,,,0.00,1.000000,,2013-07-05 03:33:00,
2013-07-04 22:42:00,66.0,60.0,-100.00,SSE,147,0.0,4.0,80,0.00,,,0.00,1.000000,,2013-07-05 03:42:00,
2013-07-04 22:52:00,66.0,60.0,-100.00,SSE,147,0.0,4.0,80,0.00,,,0.00,1.000000,,2013-07-05 03:52:00,
2013-07-04 23:01:00,66.0,60.0,-100.00,SSE,147,0.0,4.0,80,0.00,,,0.00,1.000000,,2013-07-05 04:01:00,
2013-07-04 23:22:00,67.0,59.0,-100.00,SSE,156,2.0,6.0,76,0.00,,,0.00,0.000000,,2013-07-05 04:22:00,
2013-07-04 23:33:00,67.0,59.0,-100.00,SSE,156,2.0,6.0,76,0.00,,,0.00,0.000000,,2013-07-05 04:33:00,
2013-07-04 23:43:00,67.0,59.0,-100.00,SSE,156,2.0,6.0,76,0.00,,,0.00,0.000000,,2013-07-05 04:43:00,
2013-07-04 23:53:00,67.0,59.0,-100.00,SSE,156,2.0,6.0,76,0.00,,,0.00,0.000000,,2013-07-05 04:53:00,